Ketchikan, AK

9:03 PM AKDT on August 21, 2018 (GMT -0800)
Ketchikan International

Weather History for PAKT - February, 2018

Change the Weather History Date:

Wednesday, February 7, 2018

  Actual Average Record
Temperature  
Mean Temperature 38 °F -  
Max Temperature 39 °F 42 °F 62 °F (1963)
Min Temperature 36 °F 31 °F 12 °F (2014)
Degree Days  
Heating Degree Days 28    
Moisture  
Dew Point 35 °F    
Average Humidity 94    
Maximum Humidity 100    
Minimum Humidity 86    
Precipitation  
Precipitation 0.05 in - - ()
Sea Level Pressure  
Sea Level Pressure 30.01 in    
Wind  
Wind Speed 6 mph (SSE)    
Max Wind Speed 15 mph    
Max Gust Speed 22 mph    
Visibility 6 miles    
Events Rain    
Averages and records for this station are not official NWS values.
T = Trace of Precipitation, MM = Missing Value Source: NWS Daily Summary

Daily Weather History Graph

Daily Weather History Graph

Search for Another Location

Airport or City:

Astronomy

Feb. 07, 2018 Rise Set
Actual Time 7:26 AM AKST 4:35 PM AKST
Civil Twilight 6:47 AM AKST 5:15 PM AKST
Nautical Twilight 6:04 AM AKST 5:58 PM AKST
Astronomical Twilight 5:21 AM AKST 6:41 PM AKST
Moon 12:45 AM AKST (2/7) 10:35 AM AKST (2/7)
Length of Visible Light 10h 27m
Length of Day
9h 09m
Waning Gibbous, 48% of the Moon is Illuminated
Feb 7
Waning Gibbous
Feb 15
New
Feb 22
First Quarter
Mar 1
Full
Mar 9
Last Quarter

Hourly Weather History & Observations

Time (AKST) Temp. Windchill Dew Point Humidity Pressure Visibility Wind Dir Wind Speed Gust Speed Precip Events Conditions
12:22 AM - - - N/A% 30.10 in 3.0 mi SE 3.5 mph - N/A   Overcast
12:29 AM - - - N/A% 30.10 in 2.5 mi ESE 4.6 mph - N/A   Overcast
12:44 AM - - - N/A% 30.10 in 1.8 mi SE 5.8 mph - N/A   Overcast
12:53 AM - - - N/A% 30.10 in 1.2 mi SE 4.6 mph - N/A   Overcast
1:04 AM - - - N/A% 30.10 in 3.0 mi SSE 4.6 mph - N/A   Overcast
1:22 AM - - - N/A% 30.10 in 2.0 mi SE 4.6 mph - N/A   Overcast
1:53 AM - - - N/A% 30.10 in 1.8 mi SE 5.8 mph - N/A   Overcast
2:25 AM - - - N/A% 30.09 in 0.8 mi SE 6.9 mph - N/A   Overcast
2:35 AM - - - N/A% 30.09 in 2.0 mi SSE 5.8 mph - N/A   Overcast
2:53 AM - - - N/A% 30.09 in 2.5 mi SE 4.6 mph - N/A   Overcast
3:17 AM - - - N/A% 30.09 in 1.2 mi ESE 4.6 mph - N/A   Overcast
3:33 AM - - - N/A% 30.08 in 1.0 mi SE 3.5 mph - N/A   Mist
3:39 AM - - - N/A% 30.08 in 0.8 mi SE 3.5 mph - N/A   Mist
3:45 AM - - - N/A% 30.08 in 1.0 mi SE 3.5 mph - N/A   Mist
3:53 AM - - - N/A% 30.07 in 1.2 mi Calm Calm - N/A   Overcast
4:08 AM - - - N/A% 30.07 in 1.5 mi Calm Calm - N/A   Overcast
4:53 AM - - - N/A% 30.05 in 1.0 mi SE 5.8 mph - N/A   Mist
5:11 AM - - - N/A% 30.05 in 2.5 mi ESE 8.1 mph - 0.00 in Rain Light Rain
5:50 AM - - - N/A% 30.04 in 3.0 mi SSE 4.6 mph - 0.01 in   Overcast
5:53 AM - - - N/A% 30.04 in 2.5 mi SSE 4.6 mph - 0.01 in   Overcast
6:02 AM 37.0 °F 34.5 °F 37.0 °F 100% 30.03 in 3.0 mi ESE 3.5 mph - 0.00 in Rain Light Rain
6:53 AM 37.0 °F 34.5 °F 37.0 °F 100% 30.02 in 3.0 mi SE 3.5 mph - 0.02 in Rain Light Rain
7:02 AM 37.0 °F 33.3 °F 37.0 °F 100% 30.02 in 3.0 mi SE 4.6 mph - 0.00 in Rain Light Rain
7:53 AM 37.4 °F 32.8 °F 37.4 °F 100% 30.01 in 4.0 mi SE 5.8 mph - N/A Rain Light Rain
8:53 AM 37.4 °F 34.9 °F 37.4 °F 100% 30.01 in 7.0 mi SSE 3.5 mph - N/A Rain Light Rain
9:15 AM 37.0 °F 33.3 °F 37.0 °F 100% 30.00 in 8.0 mi ESE 4.6 mph - 0.01 in Rain Light Rain
9:53 AM 37.4 °F 31.4 °F 37.4 °F 100% 30.00 in 7.0 mi NW 8.1 mph - N/A Rain Light Rain
10:53 AM 37.4 °F 31.4 °F 35.6 °F 93% 29.97 in 10.0 mi NW 8.1 mph - N/A Rain Light Rain
11:53 AM 37.0 °F 31.0 °F 36.0 °F 96% 29.95 in 8.0 mi NW 8.1 mph - 0.01 in Rain Light Rain
12:53 PM 37.0 °F 28.1 °F 36.0 °F 96% 29.92 in 10.0 mi NNW 15.0 mph - 0.01 in   Overcast
1:53 PM 39.2 °F 32.0 °F 37.4 °F 93% 29.91 in 10.0 mi NW 11.5 mph - N/A Rain Light Rain
2:53 PM 37.4 °F 29.3 °F 37.4 °F 100% 29.90 in 10.0 mi WNW 12.7 mph - N/A Rain Light Rain
3:53 PM 37.4 °F 29.8 °F 35.6 °F 93% 29.89 in 10.0 mi NW 11.5 mph - N/A   Overcast
4:53 PM 37.4 °F 29.8 °F 35.6 °F 93% 29.88 in 10.0 mi NNW 11.5 mph - N/A   Overcast
5:53 PM 37.9 °F 30.9 °F 36.0 °F 93% 29.88 in 10.0 mi NW 10.4 mph 21.9 mph N/A   Overcast
6:53 PM 37.9 °F 32.1 °F 36.0 °F 93% 29.90 in 10.0 mi NW 8.1 mph - N/A   Overcast
7:53 PM 37.9 °F 31.5 °F 35.1 °F 89% 29.91 in 10.0 mi WNW 9.2 mph - N/A   Overcast
8:53 PM 37.9 °F 30.5 °F 34.0 °F 86% 29.92 in 10.0 mi WNW 11.5 mph - N/A   Mostly Cloudy
9:39 PM 37.0 °F 29.3 °F 34.0 °F 89% 29.94 in 10.0 mi NW 11.5 mph - N/A   Mostly Cloudy
9:53 PM 37.0 °F 29.8 °F 34.0 °F 89% 29.95 in 10.0 mi NW 10.4 mph 18.4 mph N/A   Overcast
10:21 PM 36.0 °F 29.0 °F 34.0 °F 93% 29.96 in 10.0 mi WNW 9.2 mph - N/A   Overcast
10:53 PM 36.0 °F 29.0 °F 33.1 °F 89% 29.98 in 10.0 mi WNW 9.2 mph - N/A   Overcast
11:02 PM 36.0 °F 28.0 °F 33.1 °F 89% 29.98 in 10.0 mi WNW 11.5 mph - N/A   Overcast
11:33 PM 36.0 °F 30.3 °F 32.0 °F 86% 30.00 in 10.0 mi WNW 6.9 mph - N/A   Overcast
11:53 PM 36.0 °F 29.6 °F 32.0 °F 86% 30.01 in 10.0 mi WNW 8.1 mph - N/A   Overcast